Terminal Aerodrome Forecast
Issued by NWS Milwaukee/Sullivan, WI

Home | Current Version | Previous Version | Text Only | Print | Product List | Glossary On
Versions: 1 2 3 4 5 6 7 8 9 10 11 12 13 14 15 16 17 18 19 20 21 22 23 24 25 26 27 28 29 30 31 32 33 34 35 36 37 38 39 40 41 42 43 44 45 46 47 48 49 50
000
FTUS43 KMKX 290549
TAFMSN
TAF
KMSN 290549Z 2906/3006 16011KT P6SM SCT025 OVC090
      TEMPO 2906/2907 -SHRA BKN025
     FM290700 16008KT 6SM BR OVC025
      TEMPO 2907/2910 4SM -DZ OVC018
     FM291000 18004KT 5SM BR OVC003
      TEMPO 2910/2912 3SM RASN
     FM291200 30007KT 6SM -SN BR OVC003
     FM291300 33012G19KT P6SM OVC015
     FM291600 33016G26KT P6SM OVC010
     FM300300 33011KT P6SM OVC035=

USA.gov is the U.S. government's official web portal to all federal, state and local government web resources and services.